GW2440 Weather Reports


Display with metric or nautical units.
time (UTC)temp
F
wind
direction
speed
MPH
gust
MPH
rain 1hr
in
rain 24hr
in
rain mn
in
humidity
%
barometer
mb
20260831024729 78 123 0.0 0.0 0.00 0.10 0.10 99 1019.2
20260831024227 78 123 0.0 0.0 0.00 0.10 0.10 99 1019.2
20260831023726 78 123 0.0 0.0 0.00 0.10 0.10 99 1019.2
20260831023225 79 123 0.0 0.0 0.00 0.10 0.10 99 1019.6
20260831022720 79 123 0.0 0.0 0.00 0.10 0.10 99 1019.2
20260831022214 79 112 0.0 0.0 0.00 0.10 0.10 99 1018.9
20260831021714 79 101 0.0 0.0 0.00 0.10 0.10 99 1019.2
20260831021209 79 120 0.0 0.0 0.00 0.10 0.10 99 1019.2
20260831020705 79 100 0.0 0.0 0.00 0.10 0.10 99 1019.2
20260831020205 79 126 0.0 0.0 0.00 0.10 0.10 99 1019.2
20260831015700 79 114 0.0 0.0 0.00 0.10 0.10 99 1019.6
20260831015155 79 88 0.0 1.0 0.00 0.10 0.10 99 1019.2
20260831014650 79 41 3.0 3.0 0.00 0.10 0.10 99 1018.9
20260831014145 79 67 2.0 2.0 0.00 0.10 0.10 99 1019.2
20260831013641 79 52 2.0 2.0 0.00 0.10 0.10 99 1019.2
20260831013140 79 67 0.0 1.0 0.00 0.10 0.10 99 1019.2
20260831012635 80 50 2.0 2.0 0.00 0.10 0.10 99 1019.2
20260831012125 80 69 0.0 0.0 0.00 0.10 0.10 99 1019.6
20260831011624 80 73 0.0 0.0 0.00 0.10 0.10 99 1019.6
20260831011120 80 70 0.0 0.0 0.00 0.10 0.10 99 1019.2
20260831010616 80 99 0.0 0.0 0.00 0.10 0.10 99 1019.6
20260831010111 79 120 0.0 0.0 0.00 0.10 0.10 99 1019.2
20260831005611 80 110 0.0 0.0 0.00 0.10 0.10 99 1019.6
20260831005106 80 100 0.0 0.0 0.00 0.10 0.10 99 1019.2
20260831004602 79 63 0.0 0.0 0.00 0.10 0.10 99 1019.2
20260831004057 80 105 0.0 0.0 0.00 0.10 0.10 99 1019.2
20260831003554 80 98 0.0 0.0 0.00 0.10 0.10 99 1019.2
20260831003049 80 140 0.0 0.0 0.00 0.10 0.10 99 1019.2
20260831002548 80 140 0.0 0.0 0.00 0.10 0.10 99 1019.2
20260831002043 79 133 0.0 0.0 0.00 0.10 0.10 99 1019.2
20260831001539 79 95 0.0 0.0 0.00 0.10 0.10 99 1018.9
20260831001035 79 94 0.0 0.0 0.00 0.10 0.10 99 1019.2
20260831000531 80 94 0.0 0.0 0.00 0.10 0.10 99 1019.2
20260831000030 80 94 0.0 0.0 0.00 0.10 0.10 99 1018.9
20260830235524 80 98 0.0 0.0 0.00 0.10 0.10 99 1018.9
20260830235019 80 98 0.0 0.0 0.00 0.10 0.10 99 1018.9
20260830234514 80 98 0.0 0.0 0.00 0.10 0.10 99 1018.9
20260830234009 80 98 0.0 0.0 0.00 0.10 0.10 99 1018.9
20260830233504 80 97 0.0 0.0 0.00 0.10 0.10 99 1018.9
20260830233000 80 97 0.0 0.0 0.00 0.10 0.10 98 1018.9
20260830232456 80 98 0.0 1.0 0.00 0.10 0.10 98 1018.9
20260830231952 80 105 1.0 1.0 0.00 0.10 0.10 97 1018.9
20260830231448 81 100 0.0 0.0 0.00 0.10 0.10 98 1018.9
20260830230946 81 55 0.0 0.0 0.00 0.10 0.10 98 1018.9
20260830230442 81 54 0.0 0.0 0.00 0.10 0.10 97 1018.9
20260830225941 81 52 2.0 2.0 0.00 0.10 0.10 96 1018.9
20260830225438 81 115 1.0 1.0 0.00 0.10 0.10 96 1018.9
20260830224937 81 60 1.0 2.0 0.00 0.10 0.10 96 1018.9
20260830224435 81 45 2.0 2.0 0.00 0.10 0.10 97 1018.6
20260830223932 81 47 5.0 5.0 0.00 0.10 0.10 96 1018.9
20260830223429 81 84 1.0 1.0 0.00 0.10 0.10 96 1018.6
20260830222928 81 77 3.0 3.0 0.00 0.10 0.10 97 1018.9
20260830222423 82 80 1.0 2.0 0.00 0.10 0.10 97 1018.9
20260830221919 81 119 1.0 1.0 0.00 0.10 0.10 97 1018.9
20260830221415 81 125 1.0 1.0 0.00 0.10 0.10 96 1018.9
20260830220911 82 71 2.0 2.0 0.00 0.10 0.10 97 1018.6
20260830220410 81 53 3.0 3.0 0.00 0.10 0.10 97 1018.6
20260830215908 81 176 1.0 1.0 0.00 0.10 0.10 98 1018.2
20260830215403 81 148 0.0 0.0 0.00 0.10 0.10 99 1018.9
20260830214857 81 155 0.0 0.0 0.00 0.10 0.10 99 1018.2
20260830214352 81 130 0.0 1.0 0.00 0.10 0.10 99 1018.2
20260830213847 81 115 0.0 1.0 0.00 0.10 0.10 99 1018.2
20260830213342 81 54 1.0 1.0 0.00 0.10 0.10 99 1018.2
20260830212838 80 81 1.0 1.0 0.00 0.10 0.10 99 1018.2
20260830212334 80 40 4.0 6.0 0.00 0.10 0.10 99 1018.2
20260830211833 80 96 1.0 1.0 0.00 0.10 0.10 99 1018.2
20260830211327 79 78 1.0 1.0 0.00 0.10 0.10 99 1018.2
20260830210823 79 41 2.0 3.0 0.00 0.10 0.10 99 1017.9
20260830210322 79 23 2.0 2.0 0.00 0.10 0.10 99 1018.2
20260830205820 78 60 3.0 3.0 0.00 0.10 0.10 99 1018.2
20260830205314 78 51 2.0 2.0 0.00 0.10 0.10 99 1018.6
20260830204809 78 85 1.0 1.0 0.00 0.10 0.10 99 1018.6
20260830204308 78 141 0.0 1.0 0.07 0.10 0.10 99 1018.6
20260830203804 78 104 2.0 2.0 0.07 0.10 0.10 99 1018.9
20260830203300 78 59 1.0 2.0 0.00 0.09 0.09 99 1018.9
20260830202759 78 165 1.0 1.0 0.00 0.09 0.09 99 1018.6
20260830202254 78 119 0.0 1.0 0.00 0.09 0.09 99 1018.6
20260830201749 78 65 1.0 1.0 0.05 0.09 0.09 99 1018.9
20260830201243 78 102 1.0 1.0 0.05 0.09 0.09 99 1018.6
20260830200739 78 77 3.0 3.0 0.07 0.08 0.08 99 1018.9
20260830200238 78 149 0.0 1.0 0.07 0.08 0.08 99 1018.9
20260830195734 78 136 1.0 1.0 0.07 0.07 0.07 99 1018.9
20260830195232 77 95 2.0 2.0 0.07 0.07 0.07 99 1018.6
20260830194731 77 176 1.0 1.0 0.05 0.06 0.06 99 1018.6
20260830194226 77 43 2.0 2.0 0.05 0.06 0.06 99 1018.9
20260830193726 77 121 1.0 1.0 0.07 0.05 0.05 99 1018.9
20260830193220 77 83 1.0 2.0 0.12 0.05 0.05 99 1018.9
20260830192716 77 97 1.0 3.0 0.12 0.04 0.04 99 1019.2
20260830192211 77 263 1.0 1.0 0.12 0.03 0.03 98 1019.2
20260830191707 77 99 2.0 3.0 0.12 0.02 0.02 98 1019.2
20260830191201 77 141 5.0 8.0 0.07 0.01 0.01 96 1018.9
20260830190657 78 48 2.0 2.0 0.00 0.00 0.00 94 1019.2
20260830190152 79 117 1.0 2.0 0.00 0.00 0.00 95 1018.9
20260830185650 79 160 3.0 3.0 0.00 0.00 0.00 93 1019.2
20260830185146 79 178 3.0 5.0 0.00 0.00 0.00 94 1018.9
20260830184645 80 53 6.0 8.0 0.00 0.00 0.00 91 1019.2
20260830184139 81 117 4.0 6.0 0.00 0.00 0.00 89 1019.6
20260830183639 82 280 6.0 9.0 0.00 0.00 0.00 87 1019.9
20260830183135 83 51 4.0 5.0 0.00 0.00 0.00 86 1019.6
20260830182636 84 78 10.0 14.0 0.00 0.00 0.00 85 1019.6
20260830182132 88 125 3.0 5.0 0.00 0.00 0.00 80 1019.2
20260830181628 88 41 4.0 6.0 0.00 0.00 0.00 80 1018.9
20260830181127 87 46 3.0 5.0 0.00 0.00 0.00 79 1019.2
20260830180626 87 62 5.0 7.0 0.00 0.00 0.00 78 1018.9
20260830180121 88 43 6.0 8.0 0.00 0.00 0.00 77 1018.9
20260830175619 89 25 5.0 5.0 0.00 0.00 0.00 78 1019.2
20260830175115 88 20 3.0 3.0 0.00 0.00 0.00 78 1018.9
20260830174610 88 57 5.0 6.0 0.00 0.00 0.00 79 1019.2
20260830174106 89 53 6.0 8.0 0.00 0.00 0.00 77 1019.6
20260830173601 89 9 3.0 5.0 0.00 0.00 0.00 76 1019.6
20260830173056 88 24 5.0 7.0 0.00 0.00 0.00 79 1019.9
20260830172553 88 31 4.0 5.0 0.00 0.00 0.00 78 1019.6
20260830172048 89 353 7.0 8.0 0.00 0.00 0.00 76 1019.6
20260830171544 88 49 2.0 2.0 0.00 0.00 0.00 79 1019.6
20260830171039 89 25 5.0 6.0 0.00 0.00 0.00 79 1019.6
20260830170538 89 50 6.0 8.0 0.00 0.00 0.00 77 1019.9
20260830170037 88 62 6.0 7.0 0.00 0.00 0.00 74 1019.9
20260830165533 88 55 4.0 7.0 0.00 0.00 0.00 77 1019.9
20260830165029 89 32 5.0 6.0 0.00 0.00 0.00 78 1020.3
20260830164524 87 20 3.0 3.0 0.00 0.00 0.00 78 1019.9
20260830164020 88 45 4.0 5.0 0.00 0.00 0.00 81 1020.3
20260830163517 88 39 3.0 3.0 0.00 0.00 0.00 82 1020.6
20260830163016 88 42 2.0 3.0 0.00 0.00 0.00 80 1020.6
20260830162512 88 48 4.0 6.0 0.00 0.00 0.00 78 1020.3
20260830162007 87 191 0.0 0.0 0.00 0.00 0.00 80 1020.3
20260830161501 86 344 1.0 2.0 0.00 0.00 0.00 84 1020.3
20260830160956 86 15 4.0 5.0 0.00 0.00 0.00 84 1020.3
20260830160453 86 11 1.0 2.0 0.00 0.00 0.00 83 1020.3
20260830155947 86 25 3.0 5.0 0.00 0.00 0.00 84 1020.3
20260830155443 86 18 2.0 3.0 0.00 0.00 0.00 84 1020.3
20260830154938 86 171 0.0 1.0 0.00 0.00 0.00 85 1020.6
20260830154434 85 64 1.0 1.0 0.00 0.00 0.00 88 1020.6
20260830153930 85 22 3.0 5.0 0.00 0.00 0.00 88 1020.6
20260830153426 85 355 3.0 3.0 0.00 0.00 0.00 86 1020.6
20260830152925 85 36 3.0 3.0 0.00 0.00 0.00 87 1020.9
20260830152420 85 47 6.0 8.0 0.00 0.00 0.00 87 1020.6
20260830151914 84 80 2.0 2.0 0.00 0.00 0.00 89 1020.9
20260830151414 85 57 2.0 2.0 0.00 0.00 0.00 87 1020.6
20260830150908 84 56 2.0 2.0 0.00 0.00 0.00 88 1020.6
20260830150409 86 54 2.0 2.0 0.00 0.00 0.00 87 1020.9
20260830145902 84 61 1.0 2.0 0.00 0.00 0.00 88 1020.6
20260830145357 85 71 2.0 2.0 0.00 0.00 0.00 88 1020.6
20260830144847 84 356 2.0 2.0 0.00 0.00 0.00 88 1020.6
20260830144343 84 21 4.0 5.0 0.00 0.00 0.00 88 1020.6
20260830143838 85 42 1.0 2.0 0.00 0.00 0.00 88 1020.9
20260830143337 84 82 1.0 2.0 0.00 0.00 0.00 89 1020.9
20260830142832 84 75 3.0 5.0 0.00 0.00 0.00 89 1020.6
20260830142327 84 51 1.0 1.0 0.00 0.00 0.00 88 1020.6
20260830141822 84 68 3.0 5.0 0.00 0.00 0.00 89 1020.6
20260830141317 84 85 2.0 3.0 0.00 0.00 0.00 91 1020.6
20260830140812 83 66 2.0 2.0 0.00 0.00 0.00 90 1020.6
20260830140307 83 38 2.0 2.0 0.00 0.00 0.00 91 1020.6
20260830135801 83 39 3.0 3.0 0.00 0.00 0.00 93 1020.9
20260830135257 83 9 4.0 5.0 0.00 0.00 0.00 92 1020.6
20260830134753 82 52 4.0 5.0 0.00 0.00 0.00 93 1020.9
20260830134247 82 50 4.0 6.0 0.00 0.00 0.00 94 1020.9
20260830133743 80 359 2.0 2.0 0.00 0.00 0.00 98 1020.9
20260830133238 79 52 3.0 3.0 0.00 0.00 0.00 99 1020.9
20260830132734 78 55 2.0 2.0 0.00 0.00 0.00 99 1020.6
20260830132229 78 56 2.0 2.0 0.00 0.00 0.00 99 1020.9
20260830131728 78 355 2.0 3.0 0.00 0.00 0.00 99 1020.6
20260830131218 78 33 2.0 2.0 0.00 0.00 0.00 99 1020.6
20260830130713 78 65 2.0 2.0 0.00 0.00 0.00 99 1020.6
20260830130212 77 330 2.0 2.0 0.00 0.00 0.00 99 1020.6
20260830125712 77 328 1.0 2.0 0.00 0.00 0.00 99 1020.6
20260830125207 77 181 0.0 1.0 0.00 0.00 0.00 99 1020.6
20260830124705 77 35 1.0 2.0 0.00 0.00 0.00 99 1020.3
20260830124201 77 273 3.0 3.0 0.00 0.00 0.00 99 1020.6
20260830123657 77 83 0.0 0.0 0.00 0.00 0.00 99 1020.6
20260830123153 76 359 3.0 5.0 0.00 0.00 0.00 99 1020.6
20260830122650 76 353 3.0 3.0 0.00 0.00 0.00 99 1020.6
20260830122145 76 149 0.0 0.0 0.00 0.00 0.00 99 1020.3
20260830121641 76 176 0.0 0.0 0.00 0.00 0.00 99 1020.3
20260830121140 75 297 2.0 2.0 0.00 0.00 0.00 99 1020.3
20260830120635 75 348 3.0 3.0 0.00 0.00 0.00 99 1020.3
20260830120132 76 3 0.0 0.0 0.00 0.00 0.00 99 1020.3
20260830115628 76 147 0.0 0.0 0.00 0.00 0.00 99 1019.9
20260830115123 76 107 0.0 0.0 0.00 0.00 0.00 99 1019.9
20260830114620 76 118 0.0 0.0 0.00 0.00 0.00 99 1019.9
20260830114119 75 203 0.0 0.0 0.00 0.00 0.00 99 1019.6
20260830113615 75 209 0.0 0.0 0.00 0.00 0.00 99 1019.6
20260830113109 75 252 0.0 0.0 0.00 0.00 0.00 99 1019.6
20260830112606 74 217 0.0 0.0 0.00 0.00 0.00 99 1019.6
20260830112102 74 215 0.0 0.0 0.00 0.00 0.00 99 1019.2
20260830111557 74 215 0.0 0.0 0.00 0.00 0.00 99 1019.2
20260830111053 74 196 0.0 0.0 0.00 0.00 0.00 99 1019.2
20260830110552 74 196 0.0 0.0 0.00 0.00 0.00 99 1018.9
20260830110048 74 197 0.0 0.0 0.00 0.00 0.00 99 1018.9
20260830105549 74 196 0.0 0.0 0.00 0.00 0.00 99 1019.2
20260830105044 74 196 0.0 0.0 0.00 0.00 0.00 99 1018.9
20260830104536 74 196 0.0 0.0 0.00 0.00 0.00 99 1018.9
20260830104032 74 259 0.0 0.0 0.00 0.00 0.00 99 1018.6
20260830103526 74 196 0.0 0.0 0.00 0.00 0.00 99 1018.9
20260830103025 74 197 0.0 0.0 0.00 0.00 0.00 99 1018.9
20260830102520 74 197 0.0 0.0 0.00 0.00 0.00 99 1018.9
20260830102016 74 197 0.0 0.0 0.00 0.00 0.00 99 1018.9
20260830101511 74 197 0.0 0.0 0.00 0.00 0.00 99 1018.6
20260830101010 74 197 0.0 0.0 0.00 0.00 0.00 99 1018.6
20260830100510 74 197 0.0 0.0 0.00 0.00 0.00 99 1018.6
20260830100009 74 197 0.0 0.0 0.00 0.00 0.00 99 1018.6
20260830095504 74 197 0.0 0.0 0.00 0.00 0.00 99 1018.6
20260830095000 74 197 0.0 0.0 0.00 0.00 0.00 99 1018.6
20260830094456 74 197 0.0 0.0 0.00 0.00 0.00 99 1018.6
20260830093951 74 197 0.0 0.0 0.00 0.00 0.00 99 1018.2
20260830093447 74 197 0.0 0.0 0.00 0.00 0.00 99 1018.6
20260830092943 74 197 0.0 0.0 0.00 0.00 0.00 99 1018.2
20260830092438 74 196 0.0 0.0 0.00 0.00 0.00 99 1018.2
20260830091935 74 195 0.0 0.0 0.00 0.00 0.00 99 1018.6
20260830091434 74 195 0.0 0.0 0.00 0.00 0.00 99 1018.2
20260830090933 74 115 0.0 0.0 0.00 0.00 0.00 99 1018.2
20260830090429 74 14 0.0 0.0 0.00 0.00 0.00 99 1018.2
20260830085924 74 107 0.0 0.0 0.00 0.00 0.00 99 1018.9
20260830085418 74 139 0.0 0.0 0.00 0.00 0.00 99 1018.6
20260830084914 74 78 1.0 1.0 0.00 0.00 0.00 99 1018.6
20260830084409 74 147 0.0 0.0 0.00 0.00 0.00 99 1018.6
20260830083859 74 90 0.0 1.0 0.00 0.00 0.00 99 1018.9
20260830083355 74 157 0.0 0.0 0.00 0.00 0.00 99 1018.6
20260830082854 74 192 0.0 0.0 0.00 0.00 0.00 99 1018.6
20260830082349 74 193 0.0 0.0 0.00 0.00 0.00 99 1018.9
20260830081844 74 193 0.0 0.0 0.00 0.00 0.00 99 1018.9
20260830081339 74 193 0.0 0.0 0.00 0.00 0.00 99 1018.9
20260830080838 74 193 0.0 0.0 0.00 0.00 0.00 99 1018.9
20260830080336 74 193 0.0 0.0 0.00 0.00 0.00 99 1019.2
20260830075834 74 193 0.0 0.0 0.00 0.00 0.00 99 1019.2
20260830075330 74 193 0.0 0.0 0.00 0.00 0.00 99 1019.2
20260830074825 74 193 0.0 0.0 0.00 0.00 0.00 99 1018.9
20260830074321 74 193 0.0 0.0 0.00 0.00 0.00 99 1019.2
20260830073817 74 193 0.0 0.0 0.00 0.00 0.00 99 1019.2
20260830073312 74 193 0.0 0.0 0.00 0.00 0.00 99 1019.6
20260830072806 74 193 0.0 0.0 0.00 0.00 0.00 99 1019.2
20260830072302 74 193 0.0 0.0 0.00 0.00 0.00 99 1019.6
20260830071755 74 193 0.0 0.0 0.00 0.00 0.00 99 1019.6
20260830071250 74 193 0.0 0.0 0.00 0.00 0.00 99 1019.6
20260830070749 74 193 0.0 0.0 0.00 0.00 0.00 99 1019.6
20260830070244 74 193 0.0 0.0 0.00 0.00 0.00 99 1019.2
20260830065743 74 193 0.0 0.0 0.00 0.00 0.00 99 1019.6
20260830065238 74 193 0.0 0.0 0.00 0.00 0.00 99 1019.6
20260830064736 74 194 0.0 0.0 0.00 0.00 0.00 99 1019.9
20260830064232 74 194 0.0 0.0 0.00 0.00 0.00 99 1019.6
20260830063731 74 194 0.0 0.0 0.00 0.00 0.00 99 1019.6
20260830063225 74 194 0.0 0.0 0.00 0.00 0.00 99 1019.6
20260830062720 74 193 0.0 0.0 0.00 0.00 0.00 99 1019.6
20260830062215 74 193 0.0 0.0 0.00 0.00 0.00 99 1019.6
20260830061714 74 193 0.0 0.0 0.00 0.00 0.00 99 1019.6
20260830061210 75 193 0.0 0.0 0.00 0.00 0.00 99 1019.6
20260830060707 75 193 0.0 0.0 0.00 0.00 0.00 99 1019.6
20260830060203 75 193 0.0 0.0 0.00 0.00 0.00 99 1019.9
20260830055658 75 193 0.0 0.0 0.00 0.00 0.00 99 1019.6
20260830055155 75 194 0.0 0.0 0.00 0.00 0.00 99 1019.6
20260830054649 75 194 0.0 0.0 0.00 0.00 0.00 99 1019.6
20260830054144 75 194 0.0 0.0 0.00 0.00 0.00 99 1019.6
20260830053640 75 195 0.0 0.0 0.00 0.00 0.00 99 1019.6
20260830053139 75 179 0.0 0.0 0.00 0.00 0.00 99 1019.6
20260830052635 75 184 0.0 0.0 0.00 0.00 0.00 99 1019.2
20260830052130 75 183 0.0 0.0 0.00 0.00 0.00 99 1019.6
20260830051624 75 183 0.0 0.0 0.00 0.00 0.00 99 1019.6
20260830051120 75 183 1.0 1.0 0.00 0.00 0.00 99 1019.6
20260830050619 75 198 0.0 1.0 0.00 0.00 0.00 99 1019.6
20260830050114 75 201 0.0 1.0 0.00 0.00 0.00 99 1019.6
20260830045607 75 189 0.0 0.0 0.00 0.00 0.00 99 1019.6
20260830045102 75 166 0.0 0.0 0.00 0.00 0.00 99 1019.6
20260830044556 75 168 0.0 0.0 0.00 0.00 0.00 99 1019.6
20260830044051 75 187 0.0 0.0 0.00 0.00 0.00 99 1019.6
20260830043546 75 185 0.0 0.0 0.00 0.00 0.00 99 1019.6
20260830043045 75 186 0.0 0.0 0.00 0.00 0.00 99 1019.6
20260830042543 75 193 0.0 0.0 0.00 0.00 0.00 99 1019.2
20260830042039 75 221 0.0 0.0 0.00 0.00 0.00 99 1019.2
20260830041538 75 219 0.0 0.0 0.00 0.00 0.00 99 1019.6
20260830041037 75 220 0.0 0.0 0.00 0.00 0.00 99 1019.2
20260830040532 75 213 0.0 0.0 0.00 0.00 0.00 99 1019.6
20260830040028 75 213 0.0 0.0 0.00 0.30 0.30 99 1019.2
20260830035526 75 213 0.0 0.0 0.00 0.30 0.30 99 1019.6
20260830035022 75 213 0.0 0.0 0.00 0.30 0.30 99 1019.2
20260830034517 75 213 0.0 0.0 0.00 0.30 0.30 99 1019.2
20260830034016 75 213 0.0 0.0 0.00 0.30 0.30 99 1019.6
20260830033512 75 213 0.0 0.0 0.00 0.30 0.30 99 1019.6
20260830033007 75 213 0.0 0.0 0.00 0.30 0.30 99 1019.6
20260830032506 75 213 0.0 0.0 0.00 0.30 0.30 99 1019.6
20260830032001 75 213 0.0 0.0 0.00 0.30 0.30 99 1019.9
20260830031456 75 213 0.0 0.0 0.00 0.30 0.30 99 1019.9
20260830030951 75 213 0.0 0.0 0.00 0.30 0.30 99 1019.6
20260830030447 75 214 0.0 0.0 0.00 0.30 0.30 99 1019.9
20260830025946 75 209 0.0 0.0 0.00 0.30 0.30 99 1019.6
20260830025441 75 228 0.0 0.0 0.00 0.30 0.30 99 1019.9
20260830024940 75 129 0.0 0.0 0.00 0.30 0.30 99 1020.3